Regional Weather Roundup
Issued by NWS

Home | Current Version | Previous Version | Graphics & Text | Print | Product List | Glossary On
Versions: 1 2 3 4 5 6 7 8 9 10 11 12 13 14 15 16 17 18 19 20 21 22 23 24 25 26 27 28 29 30 31 32 33 34 35 36 37 38 39 40 41 42 43 44 45 46 47 48 49 50
000
ASUS43 KIND 101309
RWRIN

WEATHER ROUNDUP FOR INDIANA
NATIONAL WEATHER SERVICE INDIANAPOLIS IN
900 AM EDT THU JUL 10 2014

NOTE: "FAIR" INDICATES FEW OR NO CLOUDS BELOW 12,000 FEET WITH NO
SIGNIFICANT WEATHER AND/OR OBSTRUCTIONS TO VISIBILITY.

* - STATION DOES NOT REPORT WEATHER SUCH AS PRECIPITATION OR FOG.

+ - STATION NOT QUALITY CONTROLLED BY THE NATIONAL WEATHER SERVICE.
    USE DATA WITH CAUTION...ESPECIALLY DEWPOINT AND RELATIVE
    HUMIDITY OBSERVATIONS.

INZ001>003-010>013-019-020-101400-
NORTHWEST INDIANA

CITY           SKY/WX    TMP DP  RH WIND       PRES   REMARKS
GARY /AIRPORT/ MOSUNNY   68  63  83 N7        30.15S
KNOX *+        SUNNY     61  57  87 E6        30.15S
LA PORTE +     SUNNY     64  56  75 NE6       30.17R
MICHIGAN CITY+ SUNNY     63  57  82 E5        30.17R
MONTICELLO +   SUNNY     64  57  78 NE7       30.14R
RENSSELAER +   SUNNY     64  61  88 NE3       30.15R
VALPARAISO     SUNNY     65  59  81 E5        30.16R

$$

LMZ046-743>745-101400-
SOUTHERN LAKE MICHIGAN

STATION/POSITION TIME  TEMP WIND        PRES
                       AIR  DIR/SP/G
                 (UTC) (F)  (DEG/KT/KT) (MB)
MICHIGAN CITY    1300   64   40/  5/  7   N/A

$$

INZ004-005-014>016-021>024-101400-
NORTH CENTRAL INDIANA

CITY           SKY/WX    TMP DP  RH WIND       PRES   REMARKS
GOSHEN         SUNNY     64  55  72 N7        30.15R
LOGANSPORT +   SUNNY     63  54  72 N6        30.16R
PERU/GRISSOM   SUNNY     65  60  82 NE8       30.15R
ROCHESTER +    SUNNY     64  55  72 NE3       30.16R
SOUTH BEND     SUNNY     64  54  69 NE6       30.16S
WARSAW +       SUNNY     63  55  77 N3        30.15R

$$

INZ006>009-017-018-025>027-101400-
NORTHEAST INDIANA

CITY           SKY/WX    TMP DP  RH WIND       PRES   REMARKS
ANGOLA *+      SUNNY     63  52  67 NE5       30.15R
AUBURN +       SUNNY     64  54  68 N7        30.15R
FORT WAYNE     MOSUNNY   66  56  70 N8        30.15R
HUNTINGTON +   SUNNY     64  56  75 N5        30.14R

$$

INZ028-029-035-036-043>045-051>053-101400-
WEST CENTRAL INDIANA

CITY           SKY/WX    TMP DP  RH WIND       PRES   REMARKS
GREENCASTLE +  SUNNY     64  59  82 NE7       30.14R
LAFAYETTE      SUNNY     65  56  72 NE6       30.14R
TERRE HAUTE    SUNNY     67  59  75 NE6       30.13R

$$

INZ030>032-037>040-046>048-054>057-064-065-101400-
CENTRAL INDIANA

CITY           SKY/WX    TMP DP  RH WIND       PRES   REMARKS
ANDERSON       SUNNY     66  59  77 N12       30.15
CP ATTERBURY + SUNNY     66  59  77 N5        30.13R
COLUMBUS       MOSUNNY   64  61  88 MISG      30.12R
INDIANAPOLIS   PTSUNNY   68  57  68 NE7       30.12R
-EAGLE CREEK   MOSUNNY   68  56  65 E3        30.13R
KOKOMO *+      SUNNY     66  55  68 NE8       30.15R
MARION +       SUNNY     65  54  68 NE9       30.15R
MT COMFORT *+  MOSUNNY   66  66 100 NE6       30.13R
SHELBYVILLE    SUNNY     70  60  70 E3        30.12R
ZIONSVILLE +   SUNNY     66  57  73 NE10      30.15R

$$

INZ033-034-041-042-049-050-058-059-101400-
EAST CENTRAL INDIANA

CITY           SKY/WX    TMP DP  RH WIND       PRES   REMARKS
MUNCIE         SUNNY     66  56  70 NE8       30.14R

$$

INZ060-061-067>069-081>083-085>088-101400-
SOUTHWEST INDIANA

CITY           SKY/WX    TMP DP  RH WIND       PRES   REMARKS
EVANSVILLE     MOSUNNY   72  60  66 NE5       30.11R
HUNTINGBURG *+ PTSUNNY   70  63  78 NE3       30.11R
WASHINGTON +   SUNNY     67  63  85 CALM      30.11R

$$

INZ062-063-066-070>080-084-089>092-101400-
SOUTH CENTRAL AND SOUTHEAST INDIANA

CITY           SKY/WX    TMP DP  RH WIND       PRES   REMARKS
BEDFORD +      MOSUNNY   66  59  77 CALM      30.11
BLOOMINGTON    SUNNY     69  59  70 E5        30.11R
SEYMOUR +      SUNNY     64  48  55 CALM      30.11

$$




USA.gov is the U.S. government's official web portal to all federal, state and local government web resources and services.